Zurück zum Katalog

COSMOS 2499 DEB

AktivPO
NORAD 49939·DEBRIS·🇷🇺 Russia

Gestartet May 23, 2014 von Plesetsk Cosmodrome

Loading…

Nächste Überflüge (nächste 24 Stunden)

TLE

AktuellSource: Space-Track

Epoche: Sep 14, 2026, 13:43 UTC

1 49939U 14028W   26257.57220004  .00002020  00000-0  66151-2 0  9996
2 49939  82.5019 194.1343 0270050 116.6375 246.2664 12.89175620228350

Verfolge COSMOS 2499 DEB in Echtzeit mit AllMySat

Download on the App Store